| time (UTC) | temp C | wind direction | speed KPH | gust KPH | rain 1hr cm | rain 24hr cm | rain mn cm | humidity % | barometer mb |
| 20260507175131 | 12 | 202 | 4.8 | 11.3 | 0.00 | 0.00 | 0.00 | 64 | 1020.1 |
| 20260507174629 | 12 | 241 | 4.8 | 11.3 | 0.00 | 0.00 | 0.00 | 64 | 1020.1 |
| 20260507174417 | 12 | 247 | 6.4 | 11.3 | 0.00 | 0.00 | 0.00 | 64 | 1020.1 |
| 20260507173631 | 12 | 301 | 6.4 | 11.3 | 0.00 | 0.00 | 0.00 | 65 | 1020.1 |
| 20260507173130 | 12 | 277 | 6.4 | 11.3 | 0.00 | 0.00 | 0.00 | 64 | 1020.1 |
| 20260507172629 | 12 | 269 | 6.4 | 14.5 | 0.00 | 0.00 | 0.00 | 64 | 1020.1 |
| 20260507172419 | 13 | 265 | 4.8 | 14.5 | 0.00 | 0.00 | 0.00 | 64 | 1020.1 |
| 20260507171920 | 13 | 235 | 3.2 | 8.0 | 0.00 | 0.00 | 0.00 | 62 | 1020.1 |
| 20260507171409 | 12 | 155 | 3.2 | 9.7 | 0.00 | 0.00 | 0.00 | 64 | 1020.1 |
| 20260507170610 | 12 | 190 | 3.2 | 9.7 | 0.00 | 0.00 | 0.00 | 66 | 1020.1 |
| 20260507170109 | 11 | 160 | 3.2 | 9.7 | 0.00 | 0.00 | 0.00 | 68 | 1020.2 |
| 20260507165846 | 11 | 165 | 3.2 | 6.4 | 0.00 | 0.00 | 0.00 | 68 | 1020.2 |
| 20260507165129 | 11 | 204 | 3.2 | 6.4 | 0.00 | 0.00 | 0.00 | 68 | 1020.2 |
| 20260507164111 | 11 | 246 | 3.2 | 6.4 | 0.00 | 0.00 | 0.00 | 68 | 1020.2 |
| 20260507163608 | 11 | 262 | 1.6 | 6.4 | 0.00 | 0.00 | 0.00 | 68 | 1020.2 |
| 20260507163108 | 11 | 281 | 1.6 | 6.4 | 0.00 | 0.00 | 0.00 | 69 | 1020.2 |
| 20260507162609 | 11 | 179 | 3.2 | 6.4 | 0.00 | 0.00 | 0.00 | 69 | 1020.2 |
| 20260507162107 | 11 | 228 | 1.6 | 6.4 | 0.00 | 0.00 | 0.00 | 69 | 1020.2 |
| 20260507161843 | 11 | 209 | 1.6 | 6.4 | 0.00 | 0.00 | 0.00 | 69 | 1020.3 |
| 20260507161346 | 11 | 9 | 1.6 | 4.8 | 0.00 | 0.00 | 0.00 | 69 | 1020.3 |
| 20260507160846 | 11 | 119 | 3.2 | 6.4 | 0.00 | 0.00 | 0.00 | 70 | 1020.3 |
| 20260507160105 | 11 | 240 | 1.6 | 6.4 | 0.00 | 0.00 | 0.00 | 70 | 1020.4 |
| 20260507155538 | 11 | 140 | 1.6 | 6.4 | 0.00 | 0.00 | 0.00 | 70 | 1020.4 |
| 20260507155033 | 11 | 169 | 3.2 | 6.4 | 0.00 | 0.00 | 0.00 | 70 | 1020.4 |
| 20260507154537 | 11 | 234 | 1.6 | 4.8 | 0.00 | 0.00 | 0.00 | 70 | 1020.4 |
| 20260507154309 | 11 | 76 | 1.6 | 4.8 | 0.00 | 0.00 | 0.00 | 71 | 1020.4 |
| 20260507153527 | 11 | 128 | 1.6 | 4.8 | 0.00 | 0.00 | 0.00 | 72 | 1020.6 |
| 20260507153021 | 11 | 281 | 1.6 | 3.2 | 0.00 | 0.00 | 0.00 | 71 | 1020.6 |
| 20260507152516 | 11 | 240 | 1.6 | 3.2 | 0.00 | 0.00 | 0.00 | 71 | 1020.6 |
| 20260507152010 | 11 | 217 | 1.6 | 3.2 | 0.00 | 0.00 | 0.00 | 72 | 1020.6 |
| 20260507151509 | 11 | 232 | 1.6 | 3.2 | 0.00 | 0.00 | 0.00 | 72 | 1020.6 |
| 20260507151011 | 10 | 116 | 1.6 | 3.2 | 0.00 | 0.00 | 0.00 | 72 | 1020.6 |
| 20260507150505 | 10 | 113 | 1.6 | 4.8 | 0.00 | 0.00 | 0.00 | 73 | 1020.5 |
| 20260507150237 | 10 | 303 | 1.6 | 4.8 | 0.00 | 0.00 | 0.00 | 73 | 1020.5 |
| 20260507145501 | 10 | 281 | 3.2 | 6.4 | 0.00 | 0.00 | 0.00 | 72 | 1020.5 |
| 20260507145243 | 10 | 296 | 4.8 | 6.4 | 0.00 | 0.00 | 0.00 | 72 | 1020.4 |
| 20260507144804 | 10 | 296 | 3.2 | 6.4 | 0.00 | 0.00 | 0.00 | 72 | 1020.4 |
| 20260507143450 | 10 | 13 | 1.6 | 4.8 | 0.00 | 0.00 | 0.00 | 73 | 1020.4 |
| 20260507143229 | 10 | 199 | 1.6 | 4.8 | 0.00 | 0.00 | 0.00 | 73 | 1020.4 |
| 20260507142439 | 10 | 231 | 3.2 | 4.8 | 0.00 | 0.00 | 0.00 | 74 | 1020.4 |
| 20260507141935 | 10 | 292 | 3.2 | 6.4 | 0.00 | 0.00 | 0.00 | 74 | 1020.3 |
| 20260507141434 | 10 | 304 | 3.2 | 8.0 | 0.00 | 0.00 | 0.00 | 74 | 1020.3 |
| 20260507140932 | 10 | 284 | 4.8 | 8.0 | 0.00 | 0.00 | 0.00 | 74 | 1020.3 |
| 20260507140431 | 10 | 333 | 4.8 | 9.7 | 0.00 | 0.00 | 0.00 | 73 | 1020.2 |
| 20260507135929 | 10 | 294 | 4.8 | 9.7 | 0.00 | 0.00 | 0.00 | 73 | 1020.2 |
| 20260507135431 | 10 | 317 | 3.2 | 8.0 | 0.00 | 0.00 | 0.00 | 73 | 1020.2 |
| 20260507134929 | 10 | 317 | 3.2 | 8.0 | 0.00 | 0.00 | 0.00 | 74 | 1020.2 |
| 20260507134433 | 10 | 339 | 3.2 | 4.8 | 0.00 | 0.00 | 0.00 | 73 | 1020.2 |
| 20260507134212 | 10 | 337 | 3.2 | 4.8 | 0.00 | 0.00 | 0.00 | 74 | 1020.2 |
| 20260507133706 | 10 | 359 | 3.2 | 4.8 | 0.00 | 0.00 | 0.00 | 74 | 1020.1 |
| 20260507132931 | 10 | 36 | 3.2 | 4.8 | 0.00 | 0.00 | 0.00 | 74 | 1020.1 |
| 20260507132434 | 10 | 325 | 3.2 | 6.4 | 0.00 | 0.00 | 0.00 | 73 | 1020.1 |
| 20260507131930 | 10 | 335 | 4.8 | 6.4 | 0.00 | 0.00 | 0.00 | 73 | 1020.2 |
| 20260507131421 | 10 | 336 | 4.8 | 8.0 | 0.00 | 0.00 | 0.00 | 73 | 1020.2 |
| 20260507130919 | 10 | 319 | 4.8 | 9.7 | 0.00 | 0.00 | 0.00 | 73 | 1020.2 |
| 20260507130418 | 10 | 359 | 4.8 | 9.7 | 0.00 | 0.00 | 0.00 | 72 | 1020.2 |
| 20260507130154 | 10 | 313 | 4.8 | 8.0 | 0.00 | 0.00 | 0.00 | 73 | 1020.2 |
| 20260507125418 | 10 | 347 | 3.2 | 8.0 | 0.00 | 0.00 | 0.00 | 73 | 1020.2 |
| 20260507124917 | 10 | 327 | 3.2 | 9.7 | 0.00 | 0.00 | 0.00 | 73 | 1020.2 |
| 20260507124415 | 10 | 285 | 4.8 | 9.7 | 0.00 | 0.00 | 0.00 | 74 | 1020.2 |
| 20260507123908 | 10 | 317 | 4.8 | 9.7 | 0.00 | 0.00 | 0.00 | 73 | 1020.2 |
| 20260507123408 | 10 | 327 | 4.8 | 6.4 | 0.00 | 0.00 | 0.00 | 74 | 1020.2 |
| 20260507123144 | 10 | 289 | 3.2 | 6.4 | 0.00 | 0.00 | 0.00 | 75 | 1020.2 |
| 20260507122642 | 10 | 337 | 3.2 | 6.4 | 0.00 | 0.00 | 0.00 | 74 | 1020.2 |
| 20260507122137 | 10 | 303 | 3.2 | 4.8 | 0.00 | 0.00 | 0.00 | 73 | 1020.2 |
| 20260507121401 | 10 | 332 | 1.6 | 4.8 | 0.00 | 0.00 | 0.00 | 74 | 1020.2 |
| 20260507120902 | 10 | 323 | 3.2 | 4.8 | 0.00 | 0.00 | 0.00 | 74 | 1020.2 |
| 20260507120401 | 10 | 344 | 3.2 | 6.4 | 0.00 | 0.00 | 0.00 | 73 | 1020.3 |
| 20260507120156 | 10 | 322 | 4.8 | 8.0 | 0.00 | 0.00 | 0.00 | 73 | 1020.3 |
| 20260507115648 | 10 | 335 | 6.4 | 8.0 | 0.00 | 0.00 | 0.00 | 73 | 1020.3 |
| 20260507114850 | 10 | 337 | 6.4 | 9.7 | 0.00 | 0.00 | 0.00 | 73 | 1020.4 |
| 20260507114350 | 10 | 304 | 4.8 | 9.7 | 0.00 | 0.00 | 0.00 | 73 | 1020.4 |
| 20260507113849 | 10 | 354 | 3.2 | 8.0 | 0.00 | 0.00 | 0.00 | 73 | 1020.4 |
| 20260507113349 | 10 | 341 | 3.2 | 8.0 | 0.00 | 0.00 | 0.00 | 73 | 1020.5 |
| 20260507112847 | 10 | 337 | 3.2 | 4.8 | 0.00 | 0.00 | 0.00 | 74 | 1020.5 |
| 20260507112408 | 10 | 346 | 3.2 | 4.8 | 0.00 | 0.00 | 0.00 | 73 | 1020.5 |
| 20260507111345 | 10 | 302 | 1.6 | 4.8 | 0.00 | 0.00 | 0.00 | 74 | 1020.4 |
| 20260507110835 | 10 | 306 | 1.6 | 3.2 | 0.00 | 0.00 | 0.00 | 74 | 1020.4 |
| 20260507110332 | 10 | 4 | 1.6 | 3.2 | 0.00 | 0.00 | 0.00 | 74 | 1020.5 |
| 20260507110104 | 11 | 344 | 1.6 | 4.8 | 0.00 | 0.00 | 0.00 | 75 | 1020.5 |
| 20260507105331 | 11 | 281 | 3.2 | 4.8 | 0.00 | 0.00 | 0.00 | 74 | 1020.5 |
| 20260507104823 | 11 | 240 | 3.2 | 6.4 | 0.00 | 0.00 | 0.00 | 74 | 1020.5 |
| 20260507104327 | 11 | 256 | 3.2 | 6.4 | 0.00 | 0.00 | 0.00 | 74 | 1020.5 |
| 20260507103823 | 11 | 266 | 3.2 | 6.4 | 0.00 | 0.00 | 0.00 | 74 | 1020.5 |
| 20260507103322 | 11 | 254 | 1.6 | 6.4 | 0.00 | 0.00 | 0.00 | 75 | 1020.5 |
| 20260507102819 | 11 | 280 | 1.6 | 4.8 | 0.00 | 0.00 | 0.00 | 75 | 1020.5 |
| 20260507102307 | 11 | 236 | 3.2 | 4.8 | 0.00 | 0.00 | 0.00 | 75 | 1020.5 |
| 20260507101809 | 11 | 279 | 3.2 | 4.8 | 0.00 | 0.00 | 0.00 | 75 | 1020.6 |
| 20260507101308 | 11 | 280 | 3.2 | 4.8 | 0.00 | 0.00 | 0.00 | 74 | 1020.6 |
| 20260507100809 | 11 | 259 | 1.6 | 4.8 | 0.00 | 0.00 | 0.00 | 75 | 1020.6 |
| 20260507100303 | 11 | 284 | 3.2 | 6.4 | 0.00 | 0.00 | 0.00 | 74 | 1020.4 |
| 20260507095802 | 11 | 218 | 3.2 | 8.0 | 0.00 | 0.00 | 0.00 | 74 | 1020.4 |
| 20260507095306 | 11 | 207 | 3.2 | 8.0 | 0.00 | 0.00 | 0.00 | 74 | 1020.4 |
| 20260507094802 | 11 | 215 | 3.2 | 6.4 | 0.00 | 0.00 | 0.00 | 75 | 1020.6 |
| 20260507094259 | 11 | 218 | 3.2 | 6.4 | 0.00 | 0.00 | 0.00 | 75 | 1020.6 |
| 20260507093751 | 11 | 237 | 3.2 | 6.4 | 0.00 | 0.00 | 0.00 | 74 | 1020.6 |
| 20260507093246 | 11 | 217 | 3.2 | 8.0 | 0.00 | 0.00 | 0.00 | 75 | 1020.7 |
| 20260507092731 | 11 | 233 | 4.8 | 8.0 | 0.00 | 0.00 | 0.00 | 75 | 1020.7 |
| 20260507092232 | 11 | 202 | 4.8 | 8.0 | 0.00 | 0.00 | 0.00 | 75 | 1020.7 |
| 20260507091724 | 11 | 241 | 3.2 | 9.7 | 0.00 | 0.00 | 0.00 | 75 | 1020.7 |
| 20260507091222 | 11 | 226 | 3.2 | 9.7 | 0.00 | 0.00 | 0.00 | 75 | 1020.7 |
| 20260507090715 | 11 | 281 | 3.2 | 6.4 | 0.00 | 0.00 | 0.00 | 75 | 1020.7 |
| 20260507090208 | 11 | 263 | 3.2 | 8.0 | 0.00 | 0.00 | 0.00 | 74 | 1020.7 |
| 20260507085703 | 11 | 239 | 4.8 | 9.7 | 0.00 | 0.00 | 0.00 | 74 | 1020.7 |
| 20260507085204 | 11 | 249 | 3.2 | 9.7 | 0.00 | 0.00 | 0.00 | 74 | 1020.7 |
| 20260507084707 | 11 | 216 | 3.2 | 6.4 | 0.00 | 0.00 | 0.00 | 74 | 1020.7 |
| 20260507084203 | 11 | 250 | 4.8 | 11.3 | 0.00 | 0.00 | 0.00 | 74 | 1020.7 |
| 20260507083703 | 11 | 241 | 6.4 | 11.3 | 0.00 | 0.00 | 0.00 | 73 | 1020.7 |
| 20260507083201 | 11 | 253 | 6.4 | 9.7 | 0.00 | 0.00 | 0.00 | 74 | 1020.7 |
| 20260507082702 | 11 | 258 | 4.8 | 9.7 | 0.00 | 0.00 | 0.00 | 73 | 1020.7 |
| 20260507081950 | 11 | 221 | 4.8 | 9.7 | 0.00 | 0.00 | 0.00 | 72 | 1020.7 |
| 20260507081201 | 11 | 246 | 4.8 | 9.7 | 0.00 | 0.00 | 0.00 | 72 | 1020.7 |
| 20260507080706 | 11 | 256 | 4.8 | 8.0 | 0.00 | 0.00 | 0.00 | 72 | 1020.7 |
| 20260507080204 | 11 | 244 | 4.8 | 9.7 | 0.00 | 0.00 | 0.00 | 72 | 1020.7 |
| 20260507075702 | 11 | 217 | 4.8 | 9.7 | 0.00 | 0.00 | 0.00 | 72 | 1020.7 |
| 20260507075202 | 11 | 258 | 4.8 | 11.3 | 0.00 | 0.00 | 0.00 | 71 | 1020.7 |
| 20260507074701 | 11 | 273 | 6.4 | 11.3 | 0.00 | 0.00 | 0.00 | 71 | 1020.7 |
| 20260507074203 | 11 | 267 | 6.4 | 16.1 | 0.00 | 0.00 | 0.00 | 71 | 1020.7 |
| 20260507073700 | 11 | 244 | 6.4 | 16.1 | 0.00 | 0.00 | 0.00 | 70 | 1020.7 |
| 20260507073159 | 11 | 217 | 4.8 | 11.3 | 0.00 | 0.00 | 0.00 | 70 | 1020.6 |
| 20260507072653 | 11 | 264 | 4.8 | 11.3 | 0.00 | 0.00 | 0.00 | 70 | 1020.6 |
| 20260507072147 | 11 | 265 | 3.2 | 9.7 | 0.00 | 0.00 | 0.00 | 71 | 1020.6 |
| 20260507071924 | 11 | 275 | 4.8 | 9.7 | 0.00 | 0.00 | 0.00 | 70 | 1020.7 |
| 20260507071141 | 11 | 294 | 4.8 | 9.7 | 0.00 | 0.00 | 0.00 | 70 | 1020.7 |
| 20260507070640 | 11 | 229 | 4.8 | 8.0 | 0.00 | 0.00 | 0.00 | 70 | 1020.7 |
| 20260507070140 | 11 | 229 | 4.8 | 9.7 | 0.00 | 0.00 | 0.00 | 71 | 1020.6 |
| 20260507065637 | 11 | 242 | 4.8 | 14.5 | 0.00 | 0.00 | 0.00 | 70 | 1020.6 |
| 20260507065137 | 11 | 242 | 4.8 | 14.5 | 0.00 | 0.00 | 0.00 | 70 | 1020.6 |
| 20260507064637 | 11 | 258 | 4.8 | 11.3 | 0.00 | 0.00 | 0.00 | 70 | 1020.7 |
| 20260507064135 | 11 | 237 | 4.8 | 11.3 | 0.00 | 0.00 | 0.00 | 70 | 1020.7 |
| 20260507063632 | 12 | 194 | 6.4 | 14.5 | 0.00 | 0.00 | 0.00 | 70 | 1020.7 |
| 20260507063133 | 11 | 188 | 8.0 | 14.5 | 0.00 | 0.00 | 0.00 | 70 | 1020.7 |
| 20260507062633 | 11 | 181 | 8.0 | 16.1 | 0.00 | 0.00 | 0.00 | 71 | 1020.7 |
| 20260507062422 | 11 | 186 | 6.4 | 16.1 | 0.00 | 0.00 | 0.00 | 70 | 1020.7 |
| 20260507061633 | 12 | 193 | 4.8 | 14.5 | 0.00 | 0.00 | 0.00 | 71 | 1020.7 |
| 20260507061137 | 12 | 204 | 4.8 | 6.4 | 0.00 | 0.00 | 0.00 | 70 | 1020.7 |
| 20260507060631 | 12 | 223 | 3.2 | 8.0 | 0.00 | 0.00 | 0.00 | 70 | 1020.7 |
| 20260507060131 | 12 | 242 | 3.2 | 8.0 | 0.00 | 0.00 | 0.00 | 70 | 1020.7 |
| 20260507055637 | 12 | 203 | 3.2 | 8.0 | 0.00 | 0.00 | 0.00 | 71 | 1020.7 |
| 20260507055135 | 12 | 257 | 4.8 | 14.5 | 0.00 | 0.00 | 0.00 | 71 | 1020.7 |
| 20260507054658 | 12 | 237 | 6.4 | 14.5 | 0.00 | 0.00 | 0.00 | 70 | 1020.7 |
| 20260507053631 | 12 | 201 | 4.8 | 11.3 | 0.00 | 0.00 | 0.00 | 70 | 1020.7 |
| 20260507053121 | 12 | 225 | 4.8 | 9.7 | 0.00 | 0.00 | 0.00 | 70 | 1020.7 |
| 20260507052604 | 12 | 275 | 3.2 | 8.0 | 0.00 | 0.00 | 0.00 | 70 | 1020.7 |
| 20260507052056 | 12 | 252 | 3.2 | 8.0 | 0.00 | 0.00 | 0.00 | 70 | 1020.7 |
| 20260507051838 | 12 | 263 | 3.2 | 6.4 | 0.00 | 0.00 | 0.00 | 70 | 1020.7 |
| 20260507051050 | 12 | 246 | 3.2 | 6.4 | 0.00 | 0.00 | 0.00 | 70 | 1020.7 |
| 20260507050542 | 12 | 281 | 4.8 | 8.0 | 0.00 | 0.00 | 0.00 | 70 | 1020.7 |
| 20260507050036 | 12 | 263 | 6.4 | 12.9 | 0.00 | 0.00 | 0.00 | 69 | 1020.7 |
| 20260507045533 | 12 | 271 | 9.7 | 20.9 | 0.00 | 0.00 | 0.00 | 69 | 1020.7 |
| 20260507045035 | 12 | 284 | 9.7 | 20.9 | 0.00 | 0.00 | 0.00 | 69 | 1020.7 |
| 20260507044534 | 12 | 285 | 6.4 | 16.1 | 0.00 | 0.00 | 0.00 | 68 | 1020.7 |
| 20260507044032 | 12 | 228 | 6.4 | 17.7 | 0.00 | 0.00 | 0.00 | 68 | 1020.7 |
| 20260507043531 | 12 | 309 | 8.0 | 17.7 | 0.00 | 0.00 | 0.00 | 69 | 1020.7 |
| 20260507043031 | 12 | 302 | 9.7 | 22.5 | 0.00 | 0.00 | 0.00 | 69 | 1020.7 |
| 20260507042532 | 12 | 265 | 9.7 | 22.5 | 0.00 | 0.00 | 0.00 | 69 | 1020.7 |
| 20260507042031 | 12 | 266 | 9.7 | 19.3 | 0.00 | 0.00 | 0.00 | 69 | 1020.7 |
| 20260507041540 | 12 | 279 | 11.3 | 22.5 | 0.00 | 0.00 | 0.00 | 69 | 1020.7 |
| 20260507041034 | 12 | 309 | 8.0 | 22.5 | 0.00 | 0.00 | 0.00 | 70 | 1020.7 |
| 20260507040603 | 12 | 290 | 8.0 | 20.9 | 0.00 | 0.00 | 0.00 | 71 | 1020.7 |
| 20260507035817 | 12 | 261 | 12.9 | 24.1 | 0.00 | 0.00 | 0.00 | 72 | 1020.7 |
| 20260507035315 | 12 | 262 | 11.3 | 24.1 | 0.00 | 0.00 | 0.00 | 72 | 1020.6 |
| 20260507034531 | 12 | 286 | 8.0 | 16.1 | 0.00 | 0.00 | 0.00 | 72 | 1020.6 |
| 20260507034033 | 12 | 262 | 8.0 | 16.1 | 0.00 | 0.00 | 0.00 | 72 | 1020.6 |
| 20260507033812 | 12 | 269 | 11.3 | 22.5 | 0.00 | 0.00 | 0.00 | 72 | 1020.4 |
| 20260507033034 | 12 | 334 | 12.9 | 22.5 | 0.00 | 0.00 | 0.00 | 72 | 1020.4 |
| 20260507032806 | 12 | 279 | 14.5 | 25.7 | 0.00 | 0.00 | 0.00 | 72 | 1020.4 |
| 20260507032025 | 12 | 343 | 12.9 | 25.7 | 0.00 | 0.00 | 0.00 | 72 | 1020.4 |
| 20260507031523 | 12 | 253 | 11.3 | 20.9 | 0.00 | 0.00 | 0.00 | 70 | 1020.4 |
| 20260507031024 | 12 | 278 | 11.3 | 22.5 | 0.00 | 0.00 | 0.00 | 71 | 1020.4 |
| 20260507030523 | 13 | 283 | 9.7 | 22.5 | 0.00 | 0.00 | 0.00 | 71 | 1020.2 |
| 20260507030021 | 13 | 299 | 8.0 | 17.7 | 0.00 | 0.00 | 0.00 | 70 | 1020.2 |
| 20260507025809 | 13 | 290 | 9.7 | 17.7 | 0.00 | 0.00 | 0.00 | 70 | 1020.2 |
| 20260507025018 | 13 | 256 | 8.0 | 17.7 | 0.00 | 0.00 | 0.00 | 70 | 1020.2 |
| 20260507024515 | 13 | 287 | 8.0 | 17.7 | 0.00 | 0.00 | 0.00 | 70 | 1020.2 |
| 20260507024014 | 13 | 310 | 8.0 | 17.7 | 0.00 | 0.00 | 0.00 | 70 | 1020.2 |
| 20260507023516 | 13 | 294 | 9.7 | 17.7 | 0.00 | 0.00 | 0.00 | 69 | 1020.0 |
| 20260507023015 | 13 | 295 | 9.7 | 17.7 | 0.00 | 0.00 | 0.00 | 69 | 1020.0 |
| 20260507022513 | 13 | 305 | 9.7 | 20.9 | 0.00 | 0.00 | 0.00 | 70 | 1020.0 |
| 20260507022012 | 13 | 313 | 11.3 | 22.5 | 0.00 | 0.00 | 0.00 | 71 | 1020.1 |
| 20260507021514 | 13 | 307 | 14.5 | 24.1 | 0.00 | 0.00 | 0.00 | 70 | 1020.1 |
| 20260507021014 | 13 | 308 | 14.5 | 24.1 | 0.00 | 0.00 | 0.00 | 71 | 1020.1 |
| 20260507020511 | 13 | 331 | 12.9 | 22.5 | 0.00 | 0.00 | 0.00 | 70 | 1020.1 |
| 20260507020010 | 13 | 286 | 12.9 | 22.5 | 0.00 | 0.00 | 0.00 | 71 | 1020.1 |
| 20260507015532 | 13 | 243 | 11.3 | 19.3 | 0.00 | 0.00 | 0.00 | 71 | 1020.1 |
| 20260507014501 | 13 | 291 | 16.1 | 32.2 | 0.00 | 0.00 | 0.00 | 71 | 1020.1 |
| 20260507013952 | 13 | 311 | 11.3 | 25.7 | 0.00 | 0.00 | 0.00 | 69 | 1020.1 |
| 20260507013448 | 13 | 333 | 8.0 | 19.3 | 0.00 | 0.00 | 0.00 | 68 | 1020.1 |
| 20260507012942 | 13 | 304 | 9.7 | 20.9 | 0.00 | 0.00 | 0.00 | 68 | 1020.1 |
| 20260507012437 | 13 | 321 | 8.0 | 20.9 | 0.00 | 0.00 | 0.00 | 68 | 1020.1 |
| 20260507011937 | 14 | 250 | 4.8 | 19.3 | 0.00 | 0.00 | 0.00 | 67 | 1020.1 |
| 20260507011439 | 14 | 239 | 6.4 | 14.5 | 0.00 | 0.00 | 0.00 | 67 | 1020.1 |
| 20260507010940 | 14 | 269 | 9.7 | 22.5 | 0.00 | 0.00 | 0.00 | 67 | 1020.1 |
| 20260507010439 | 14 | 334 | 8.0 | 22.5 | 0.00 | 0.00 | 0.00 | 67 | 1020.1 |
| 20260507005935 | 14 | 294 | 6.4 | 16.1 | 0.00 | 0.00 | 0.00 | 67 | 1020.1 |
| 20260507005433 | 14 | 242 | 8.0 | 19.3 | 0.00 | 0.00 | 0.00 | 66 | 1020.1 |
| 20260507004933 | 14 | 263 | 6.4 | 19.3 | 0.00 | 0.00 | 0.00 | 66 | 1020.0 |
| 20260507004434 | 14 | 264 | 4.8 | 11.3 | 0.00 | 0.00 | 0.00 | 67 | 1020.0 |
| 20260507004000 | 14 | 265 | 8.0 | 16.1 | 0.00 | 0.00 | 0.00 | 67 | 1020.0 |
| 20260507003216 | 14 | 284 | 9.7 | 19.3 | 0.00 | 0.00 | 0.00 | 67 | 1020.0 |
| 20260507002429 | 14 | 248 | 9.7 | 27.4 | 0.00 | 0.00 | 0.00 | 66 | 1020.0 |
| 20260507001931 | 14 | 314 | 9.7 | 27.4 | 0.00 | 0.00 | 0.00 | 67 | 1020.1 |
| 20260507001433 | 14 | 277 | 9.7 | 16.1 | 0.00 | 0.00 | 0.00 | 67 | 1020.1 |
| 20260507000927 | 13 | 298 | 9.7 | 19.3 | 0.00 | 0.00 | 0.00 | 67 | 1020.1 |
| 20260507000420 | 13 | 274 | 11.3 | 24.1 | 0.00 | 0.00 | 0.00 | 66 | 1020.1 |
| 20260506235918 | 13 | 316 | 9.7 | 24.1 | 0.00 | 0.00 | 0.00 | 67 | 1020.1 |
| 20260506235417 | 13 | 293 | 8.0 | 17.7 | 0.00 | 0.00 | 0.00 | 69 | 1020.1 |
| 20260506234917 | 13 | 281 | 8.0 | 20.9 | 0.00 | 0.00 | 0.00 | 70 | 1020.2 |
| 20260506234658 | 13 | 310 | 6.4 | 20.9 | 0.00 | 0.00 | 0.00 | 69 | 1020.2 |
| 20260506233916 | 13 | 304 | 6.4 | 16.1 | 0.00 | 0.00 | 0.00 | 69 | 1020.2 |
| 20260506233417 | 13 | 304 | 8.0 | 16.1 | 0.00 | 0.00 | 0.00 | 70 | 1020.2 |
| 20260506233158 | 13 | 277 | 9.7 | 19.3 | 0.00 | 0.00 | 0.00 | 70 | 1020.2 |
| 20260506232418 | 13 | 272 | 8.0 | 19.3 | 0.00 | 0.00 | 0.00 | 70 | 1020.2 |
| 20260506231911 | 13 | 256 | 4.8 | 9.7 | 0.00 | 0.00 | 0.00 | 70 | 1020.2 |
| 20260506231411 | 13 | 277 | 6.4 | 17.7 | 0.00 | 0.00 | 0.00 | 70 | 1020.2 |
| 20260506230911 | 13 | 313 | 8.0 | 17.7 | 0.00 | 0.00 | 0.00 | 69 | 1020.2 |
| 20260506230416 | 13 | 304 | 9.7 | 17.7 | 0.00 | 0.00 | 0.00 | 68 | 1020.2 |
| 20260506225909 | 13 | 255 | 9.7 | 17.7 | 0.00 | 0.00 | 0.00 | 68 | 1020.2 |
| 20260506225653 | 13 | 247 | 9.7 | 20.9 | 0.00 | 0.00 | 0.00 | 68 | 1020.2 |
| 20260506224907 | 13 | 278 | 9.7 | 20.9 | 0.00 | 0.00 | 0.00 | 69 | 1020.2 |
| 20260506224406 | 13 | 265 | 11.3 | 27.4 | 0.00 | 0.00 | 0.00 | 69 | 1020.2 |
| 20260506224148 | 13 | 224 | 12.9 | 27.4 | 0.00 | 0.00 | 0.00 | 68 | 1020.2 |
| 20260506223405 | 13 | 167 | 11.3 | 20.9 | 0.00 | 0.00 | 0.00 | 69 | 1020.2 |
| 20260506222903 | 13 | 176 | 12.9 | 25.7 | 0.00 | 0.00 | 0.00 | 69 | 1020.2 |
| 20260506222402 | 13 | 212 | 11.3 | 25.7 | 0.00 | 0.00 | 0.00 | 69 | 1020.2 |
| 20260506221906 | 13 | 217 | 9.7 | 20.9 | 0.00 | 0.00 | 0.00 | 69 | 1020.4 |
| 20260506221401 | 13 | 265 | 9.7 | 24.1 | 0.00 | 0.00 | 0.00 | 68 | 1020.4 |
| 20260506220852 | 13 | 190 | 9.7 | 24.1 | 0.00 | 0.00 | 0.00 | 68 | 1020.4 |
| 20260506220358 | 13 | 263 | 9.7 | 19.3 | 0.00 | 0.00 | 0.00 | 67 | 1020.3 |
| 20260506215851 | 13 | 242 | 9.7 | 19.3 | 0.00 | 0.00 | 0.00 | 67 | 1020.3 |
| 20260506215351 | 14 | 274 | 11.3 | 20.9 | 0.00 | 0.00 | 0.00 | 67 | 1020.3 |
| 20260506214853 | 13 | 253 | 11.3 | 24.1 | 0.00 | 0.00 | 0.00 | 66 | 1020.3 |
| 20260506214351 | 13 | 269 | 11.3 | 24.1 | 0.00 | 0.00 | 0.00 | 66 | 1020.3 |
| 20260506213849 | 13 | 252 | 12.9 | 29.0 | 0.00 | 0.00 | 0.00 | 67 | 1020.3 |
| 20260506213349 | 13 | 263 | 9.7 | 29.0 | 0.00 | 0.00 | 0.00 | 67 | 1020.4 |
| 20260506212854 | 13 | 201 | 8.0 | 22.5 | 0.00 | 0.00 | 0.00 | 67 | 1020.4 |
| 20260506212348 | 13 | 230 | 11.3 | 25.7 | 0.00 | 0.00 | 0.00 | 68 | 1020.4 |
| 20260506211838 | 13 | 267 | 11.3 | 25.7 | 0.00 | 0.00 | 0.00 | 68 | 1020.5 |
| 20260506211335 | 13 | 226 | 8.0 | 16.1 | 0.00 | 0.00 | 0.00 | 68 | 1020.5 |
| 20260506211117 | 13 | 221 | 11.3 | 25.7 | 0.00 | 0.00 | 0.00 | 68 | 1020.5 |
| 20260506210335 | 13 | 258 | 11.3 | 27.4 | 0.00 | 0.00 | 0.00 | 68 | 1020.4 |
| 20260506205836 | 13 | 261 | 9.7 | 27.4 | 0.00 | 0.00 | 0.00 | 68 | 1020.4 |
| 20260506205333 | 13 | 248 | 9.7 | 20.9 | 0.00 | 0.00 | 0.00 | 68 | 1020.4 |
| 20260506205127 | 13 | 277 | 9.7 | 19.3 | 0.00 | 0.00 | 0.00 | 69 | 1020.4 |
| 20260506204334 | 13 | 231 | 11.3 | 19.3 | 0.00 | 0.00 | 0.00 | 69 | 1020.4 |
| 20260506203831 | 13 | 260 | 11.3 | 24.1 | 0.00 | 0.00 | 0.00 | 69 | 1020.4 |
| 20260506203329 | 13 | 232 | 11.3 | 24.1 | 0.00 | 0.00 | 0.00 | 70 | 1020.2 |
| 20260506202830 | 13 | 217 | 9.7 | 27.4 | 0.00 | 0.00 | 0.00 | 70 | 1020.2 |
| 20260506202333 | 13 | 282 | 9.7 | 27.4 | 0.00 | 0.00 | 0.00 | 70 | 1020.2 |
| 20260506201829 | 13 | 239 | 8.0 | 19.3 | 0.00 | 0.00 | 0.00 | 70 | 1020.3 |
| 20260506201329 | 13 | 215 | 9.7 | 19.3 | 0.00 | 0.00 | 0.00 | 69 | 1020.3 |
| 20260506200828 | 13 | 226 | 8.0 | 19.3 | 0.00 | 0.00 | 0.00 | 69 | 1020.3 |
| 20260506200329 | 13 | 238 | 9.7 | 19.3 | 0.00 | 0.00 | 0.00 | 69 | 1020.2 |
| 20260506195831 | 13 | 235 | 11.3 | 19.3 | 0.00 | 0.00 | 0.00 | 69 | 1020.2 |
| 20260506195333 | 13 | 226 | 9.7 | 20.9 | 0.00 | 0.00 | 0.00 | 69 | 1020.2 |
| 20260506194830 | 13 | 249 | 9.7 | 20.9 | 0.00 | 0.00 | 0.00 | 69 | 1020.2 |
| 20260506194330 | 13 | 224 | 9.7 | 22.5 | 0.00 | 0.00 | 0.00 | 68 | 1020.2 |
| 20260506193832 | 13 | 183 | 9.7 | 22.5 | 0.00 | 0.00 | 0.00 | 68 | 1020.2 |
| 20260506193331 | 13 | 256 | 6.4 | 19.3 | 0.00 | 0.00 | 0.00 | 69 | 1020.2 |
| 20260506192831 | 13 | 265 | 9.7 | 19.3 | 0.00 | 0.00 | 0.00 | 69 | 1020.2 |
| 20260506192330 | 13 | 208 | 11.3 | 20.9 | 0.00 | 0.00 | 0.00 | 69 | 1020.2 |
| 20260506191829 | 13 | 261 | 11.3 | 22.5 | 0.00 | 0.00 | 0.00 | 69 | 1020.1 |
| 20260506191328 | 13 | 208 | 11.3 | 22.5 | 0.00 | 0.00 | 0.00 | 70 | 1020.1 |
| 20260506190830 | 13 | 159 | 9.7 | 20.9 | 0.00 | 0.00 | 0.00 | 70 | 1020.1 |
| 20260506190321 | 13 | 235 | 9.7 | 19.3 | 0.00 | 0.00 | 0.00 | 70 | 1020.2 |
| 20260506185809 | 13 | 267 | 9.7 | 19.3 | 0.00 | 0.00 | 0.00 | 70 | 1020.2 |
| 20260506185308 | 13 | 248 | 9.7 | 22.5 | 0.00 | 0.00 | 0.00 | 70 | 1020.2 |
| 20260506184808 | 13 | 194 | 9.7 | 22.5 | 0.00 | 0.00 | 0.00 | 71 | 1020.1 |
| 20260506184312 | 13 | 150 | 11.3 | 22.5 | 0.00 | 0.00 | 0.00 | 71 | 1020.1 |
| 20260506184055 | 13 | 229 | 11.3 | 22.5 | 0.00 | 0.00 | 0.00 | 71 | 1020.1 |
| 20260506183600 | 13 | 190 | 9.7 | 22.5 | 0.00 | 0.00 | 0.00 | 70 | 1020.1 |
| 20260506182809 | 13 | 210 | 9.7 | 22.5 | 0.00 | 0.00 | 0.00 | 70 | 1020.1 |
| 20260506182311 | 13 | 255 | 9.7 | 19.3 | 0.00 | 0.00 | 0.00 | 70 | 1020.1 |
| 20260506181805 | 13 | 219 | 11.3 | 22.5 | 0.00 | 0.00 | 0.00 | 70 | 1019.9 |
| 20260506181306 | 13 | 244 | 12.9 | 22.5 | 0.00 | 0.00 | 0.00 | 70 | 1019.9 |
| 20260506180804 | 13 | 264 | 11.3 | 22.5 | 0.00 | 0.00 | 0.00 | 70 | 1019.9 |
| 20260506180304 | 13 | 221 | 11.3 | 20.9 | 0.00 | 0.00 | 0.00 | 68 | 1019.6 |
| 20260506175806 | 13 | 223 | 9.7 | 20.9 | 0.00 | 0.00 | 0.00 | 68 | 1019.6 |